Avalon, Australia

3:54 PM AEDT on March 25, 2017 (GMT +1100)
Avalon

Weather History for YMAV - April, 2013

Change the Weather History Date:

Friday, April 19, 2013

  Actual Average Record
Temperature  
Mean Temperature 56 °F -  
Max Temperature 62 °F - - ()
Min Temperature 51 °F - - ()
Degree Days  
Heating Degree Days 8    
Growing Degree Days 6 (Base 50)    
Moisture  
Dew Point 41 °F    
Average Humidity 55    
Maximum Humidity 72    
Minimum Humidity 28    
Precipitation  
Precipitation 0.00 in - - ()
Sea Level Pressure  
Sea Level Pressure 30.29 in    
Wind  
Wind Speed 17 mph ()    
Max Wind Speed 22 mph    
Max Gust Speed -    
Visibility 6.2 miles    
Events Rain    
T = Trace of Precipitation, MM = Missing Value Source: Averaged Metar Reports

Daily Weather History Graph

Daily Weather History Graph

Search for Another Location

Airport or City:

Trip Planner

Search our weather history database for the weather conditions in past years. The results will help you decide how hot, cold, wet, or windy it might be!

Date:

Astronomy

Apr. 19, 2013 Rise Set
Actual Time 6:52 AM AEST 5:49 PM AEST
Civil Twilight 6:25 AM AEST 6:16 PM AEST
Nautical Twilight 5:54 AM AEST 6:47 PM AEST
Astronomical Twilight 5:24 AM AEST 7:17 PM AEST
Moon 1:46 PM AEST (4/19) No Moon Set
Length of Visible Light 11h 50m
Length of Day
10h 57m
First Quarter, 56% of the Moon is Illuminated
Apr 19
First Quarter
Apr 26
Full
May 2
Last Quarter
May 10
New
May 18
First Quarter

Hourly Weather History & Observations

Time (AEST) Temp. Dew Point Humidity Pressure Visibility Wind Dir Wind Speed Gust Speed Precip Events Conditions
12:00 AM 55 °F 39 °F 44% 30.26 in - South 20.7 mph - -  
12:00 AM 55.4 °F 39.2 °F 54% 30.24 in 6.2 mi South 20.7 mph - N/A   Scattered Clouds
12:30 AM 55.4 °F 37.4 °F 51% 30.24 in 6.2 mi South 21.9 mph - N/A   Scattered Clouds
1:00 AM 55.4 °F 39.2 °F 54% 30.24 in 6.2 mi South 21.9 mph - N/A   Scattered Clouds
1:30 AM 53.6 °F 39.2 °F 58% 30.24 in 6.2 mi South 19.6 mph - N/A   Scattered Clouds
2:00 AM - - N/A% 0.00 in 6.2 mi South 18.4 mph - N/A   Scattered Clouds
2:30 AM 53.6 °F 39.2 °F 58% 30.24 in 6.2 mi South 17.3 mph - N/A   Unknown
3:00 AM 54 °F 38 °F 44% 30.25 in - South 17.3 mph - -  
3:00 AM 53.6 °F 39.2 °F 58% 30.24 in 6.2 mi South 17.3 mph - N/A   Unknown
3:30 AM 53.6 °F 41.0 °F 62% 30.24 in 6.2 mi South 17.3 mph - N/A   Unknown
4:00 AM 53.6 °F 41.0 °F 62% 30.24 in 6.2 mi South 19.6 mph - N/A   Unknown
4:30 AM 53.6 °F 39.2 °F 58% 30.24 in 6.2 mi South 19.6 mph - N/A   Unknown
5:00 AM 53.6 °F 39.2 °F 58% 30.24 in 6.2 mi South 17.3 mph - N/A   Unknown
5:30 AM 53.6 °F 41.0 °F 62% 30.27 in 6.2 mi South 17.3 mph - N/A   Unknown
6:00 AM 52 °F 41 °F 57% 30.28 in - South 13.8 mph - -  
6:00 AM 51.8 °F 41.0 °F 67% 30.27 in 6.2 mi South 13.8 mph - N/A   Unknown
6:30 AM 51.8 °F 39.2 °F 62% 30.27 in 6.2 mi South 15.0 mph - N/A   Unknown
7:00 AM 53.6 °F 39.2 °F 58% 30.27 in 6.2 mi South 15.0 mph - N/A   Unknown
7:30 AM 51.8 °F 37.4 °F 58% 30.27 in 6.2 mi South 13.8 mph - N/A   Unknown
8:00 AM 53.6 °F 37.4 °F 54% 30.30 in 6.2 mi South 12.7 mph - N/A   Unknown
8:30 AM 55.4 °F 42.8 °F 63% 30.30 in 6.2 mi SE 13.8 mph - N/A   Mostly Cloudy
9:00 AM 58 °F 36 °F 32% 30.33 in - SSE 20.7 mph - -  
9:00 AM 59.0 °F 35.6 °F 42% 30.30 in 6.2 mi SSE 20.7 mph - N/A   Scattered Clouds
9:30 AM 59.0 °F 35.6 °F 42% 30.33 in 6.2 mi SE 18.4 mph - N/A   Scattered Clouds
10:00 AM 60.8 °F 37.4 °F 42% 30.33 in 6.2 mi SSE 20.7 mph - N/A   Mostly Cloudy
10:30 AM 60.8 °F 37.4 °F 42% 30.33 in 6.2 mi South 18.4 mph - N/A   Scattered Clouds
11:00 AM 60.8 °F 37.4 °F 42% 30.33 in 6.2 mi SSE 19.6 mph - N/A   Scattered Clouds
11:30 AM 62.6 °F 39.2 °F 42% 30.30 in 6.2 mi SSE 18.4 mph - N/A   Scattered Clouds
12:00 PM 62 °F 37 °F 28% 30.32 in - South 18.4 mph - -  
12:00 PM 62.6 °F 37.4 °F 39% 30.30 in 6.2 mi South 18.4 mph - N/A   Unknown
12:30 PM 62.6 °F 39.2 °F 42% 30.30 in 6.2 mi South 19.6 mph - N/A   Scattered Clouds
1:00 PM 60.8 °F 37.4 °F 42% 30.30 in 6.2 mi SSE 17.3 mph - N/A   Mostly Cloudy
1:30 PM 59.0 °F 44.6 °F 59% 30.30 in 6.2 mi SE 16.1 mph - N/A   Overcast
2:00 PM 59.0 °F 42.8 °F 55% 30.30 in 6.2 mi SE 16.1 mph - N/A Rain Light Rain Showers
2:30 PM 60.8 °F 39.2 °F 45% 30.27 in 6.2 mi SSE 18.4 mph - N/A   Scattered Clouds
3:00 PM 61 °F 40 °F 35% 30.30 in - SE 20.7 mph - -  
3:00 PM 60.8 °F 41.0 °F 48% 30.27 in 6.2 mi SE 20.7 mph - N/A   Scattered Clouds
3:30 PM 60.8 °F 41.0 °F 48% 30.27 in 6.2 mi SE 20.7 mph - N/A   Scattered Clouds
4:00 PM 59.0 °F 41.0 °F 51% 30.27 in 6.2 mi SE 19.6 mph - N/A   Unknown
4:30 PM 59.0 °F 41.0 °F 51% 30.30 in 6.2 mi SSE 21.9 mph - N/A   Unknown
5:00 PM 57.2 °F 39.2 °F 51% 30.30 in 6.2 mi SSE 20.7 mph - N/A   Unknown
5:30 PM 57.2 °F 39.2 °F 51% 30.30 in 6.2 mi SSE 19.6 mph - N/A   Unknown
6:00 PM 55 °F 42 °F 51% 30.31 in - SSE 18.4 mph - -  
6:00 PM 55.4 °F 42.8 °F 63% 30.30 in 6.2 mi SSE 18.4 mph - N/A   Unknown
6:30 PM 53.6 °F 44.6 °F 72% 30.30 in 6.2 mi SSE 16.1 mph - N/A   Unknown
7:00 PM 55.4 °F 44.6 °F 67% 30.30 in 6.2 mi SE 17.3 mph - N/A   Unknown
7:30 PM 55.4 °F 44.6 °F 67% 30.33 in 6.2 mi SE 15.0 mph - N/A   Scattered Clouds
8:00 PM 53.6 °F 44.6 °F 72% 30.33 in 6.2 mi SSE 11.5 mph - N/A   Scattered Clouds
8:30 PM 55.4 °F 44.6 °F 67% 30.33 in 6.2 mi SE 16.1 mph - N/A   Unknown
9:00 PM 55 °F 45 °F 59% 30.33 in - SE 13.8 mph - -  
9:00 PM 55.4 °F 44.6 °F 67% 30.33 in 6.2 mi SE 13.8 mph - N/A   Mostly Cloudy
9:30 PM 55.4 °F 46.4 °F 72% 30.33 in 6.2 mi SE 13.8 mph - N/A   Overcast
10:00 PM 53.6 °F 44.6 °F 72% 30.30 in 6.2 mi SE 12.7 mph - N/A   Scattered Clouds
10:30 PM 53.6 °F 44.6 °F 72% 30.30 in 6.2 mi SE 13.8 mph - N/A   Unknown
11:00 PM 55.4 °F 44.6 °F 67% 30.30 in 6.2 mi SE 17.3 mph - N/A   Unknown
11:30 PM 55.4 °F 46.4 °F 72% 30.30 in 6.2 mi SE 17.3 mph - N/A   Unknown